This is the latest recevied weather packets stored in our database for station/object AE0NK. If no packets are shown the sender has not sent any weather packets the latest 10 day(s).
| Time | Temp. | Humidity | Pressure | Rain* | Wind** | Luminosity | Snow |
|---|---|---|---|---|---|---|---|
| 1777835294 | 22.78° C | 37% | 1007 hPa | 0 mm | - | 800 W/m² | - |
| 1777834992 | 22.22° C | 37% | 1007 hPa | 0 mm | - | 858 W/m² | - |
| 1777834705 | 22.22° C | 39% | 1007 hPa | 0 mm | - | 856 W/m² | - |
| 1777834405 | 22.22° C | 36% | 1007.1 hPa | 0 mm | - | 896 W/m² | - |
| 1777834102 | 22.22° C | 38% | 1007.3 hPa | 0 mm | - | 877 W/m² | - |
| 1777833802 | 22.22° C | 38% | 1007.2 hPa | 0 mm | - | 870 W/m² | - |
| 1777833500 | 22.22° C | 38% | 1007.3 hPa | 0 mm | - | 877 W/m² | - |
| 1777833198 | 21.67° C | 38% | 1007.3 hPa | 0 mm | - | 881 W/m² | - |
| 1777832897 | 21.11° C | 38% | 1007.4 hPa | 0 mm | - | 912 W/m² | - |
| 1777832595 | 21.11° C | 38% | 1007.5 hPa | 0 mm | - | 888 W/m² | - |
| 1777832294 | 21.11° C | 38% | 1007.4 hPa | 0 mm | - | 856 W/m² | - |
| 1777831993 | 21.11° C | 38% | 1007.6 hPa | 0 mm | - | 842 W/m² | - |
| 1777831691 | 21.67° C | 38% | 1007.7 hPa | 0 mm | - | 835 W/m² | - |
| 1777831409 | 21.11° C | 40% | 1007.8 hPa | 0 mm | - | 923 W/m² | - |
| 1777831103 | 21.11° C | 39% | 1007.9 hPa | 0 mm | - | 914 W/m² | - |
| 1777830798 | 20.56° C | 42% | 1007.8 hPa | 0 mm | - | 907 W/m² | - |
| 1777830495 | 20.56° C | 41% | 1008 hPa | 0 mm | - | 770 W/m² | - |
| 1777830194 | 20° C | 39% | 1008.1 hPa | 0 mm | - | 844 W/m² | - |
| 1777829910 | 20° C | 41% | 1008.2 hPa | 0 mm | - | 891 W/m² | - |
| 1777829607 | 19.44° C | 40% | 1008.3 hPa | 0 mm | - | 877 W/m² | - |
| 1777829304 | 19.44° C | 41% | 1008.3 hPa | 0 mm | - | 874 W/m² | - |
| 1777829002 | 19.44° C | 40% | 1008.3 hPa | 0 mm | - | 872 W/m² | - |
| 1777828700 | 19.44° C | 42% | 1008.4 hPa | 0 mm | - | 867 W/m² | - |
| 1777828398 | 18.89° C | 41% | 1008.3 hPa | 0 mm | - | 867 W/m² | - |
| 1777828095 | 18.89° C | 42% | 1008.4 hPa | 0 mm | - | 860 W/m² | - |
* Rain latest hour (hover to see other rain measurements)
** Current wind speed in m/s (hover to see current wind gust speed)